Regional Weather Roundup
Issued by NWS

Home | Current Version | Previous Version | Text Only | Print | Product List | Glossary On
Versions: 1 2 3 4 5 6 7 8 9 10 11 12 13 14 15 16 17 18 19 20 21 22 23 24 25 26 27
000
ASUS45 KBOU 280107
RWRCO

WEATHER ROUNDUP FOR COLORADO
NATIONAL WEATHER SERVICE DENVER/BOULDER CO
700 PM MDT SAT MAY 27 2017

NOTE: "FAIR" INDICATES FEW OR NO CLOUDS BELOW 12000 FEET WITH NO
SIGNIFICANT WEATHER AND/OR OBSTRUCTIONS TO VISIBILITY.

COZ001>005-013-030-031-280200-
...NORTHWEST COLORADO...

CITY           SKY/WX    TMP DP  RH WIND       PRES   REMARKS
CRAIG          FAIR      56  38  50 SE14      30.24R
HAYDEN         FAIR      52  36  54 E10       30.26S
MEEKER         FAIR      60  26  27 N13       30.24R
RABBIT EARS PA NOT AVBL
STEAMBOAT SPGS NOT AVBL
WALDEN         NOT AVBL
$$

COZ006>008-011-280200-
...WEST CENTRAL VALLEYS...

CITY           SKY/WX    TMP DP  RH WIND       PRES   REMARKS
GRAND JUNCTION PTSUNNY   71  25  17 NE13      30.12R
MONTROSE       PTSUNNY   65  26  23 N17       30.17R
EAGLE          FAIR      53  34  48 CALM      30.28R
RIFLE          FAIR      65  26  23 N15       30.18R
DELTA          FAIR      72  24  16 N14       30.13R
NUCLA          FAIR      68  21  17 N14G26    30.17S
$$

COZ017>023-064>068-280200-
...SOUTHWEST COLORADO...

CITY           SKY/WX    TMP DP  RH WIND       PRES   REMARKS
DURANGO        FAIR      66  19  16 W13G21    30.13F
CORTEZ         FAIR      71  14  11 N16G23    30.11R
PAGOSA SPRINGS FAIR      64  11  13 SW17G25   30.18S
TELLURIDE      LGT RAIN  50  25  38 SW7G20    30.31R
WOLF CREEK PAS NOT AVBL
$$

COZ009-010-012-014-032>034-037-058>063-280200-
...CENTRAL COLORADO...

CITY           SKY/WX    TMP DP  RH WIND       PRES   REMARKS
ASPEN          FAIR      49  32  52 SW5       30.26R
BUENA VISTA    FAIR      50  27  42 NW22G31   30.24R
COPPER MTN     NOT AVBL
BERTHOUD PASS  NOT AVBL
COTTONWOOD PAS NOT AVBL
GUNNISON       FAIR      53  27  36 N16G24    30.22R
KREMMLING      NOT AVBL
LEADVILLE      SNOW      31  29  92 N12       30.36R VSB 1/2 WCI  22
SALIDA         PTSUNNY   55  28  35 N13G21    30.27R
SUNLIGHT       NOT AVBL
WILKERSON PASS NOT AVBL
$$

COZ069>075-280200-
...SAN LUIS VALLEY/SANGRE DE CRISTO MOUNTAINS...

CITY           SKY/WX    TMP DP  RH WIND       PRES   REMARKS
ALAMOSA        PTSUNNY   64  23  21 NW20G26   30.14R
DEL NORTE      NOT AVBL
LA VETA PASS   NOT AVBL
SAGUACHE       NOT AVBL
$$

COZ035-036-038>040-280200-
...NORTHERN COLORADO FRONT RANGE...

CITY           SKY/WX    TMP DP  RH WIND       PRES   REMARKS
DENVER INTL AP PTSUNNY   54  42  64 N9        30.21R
DMNS CITY PARK   N/A     53  38  58 N6G14     30.21R
AURORA         PTSUNNY   51  43  74 NE3       30.22R
FRONT RANGE AP PTSUNNY   54  45  71 NW9       30.22S
ERIE MUNI ARPT NOT AVBL
BOULDER MUN AP NOT AVBL
CENTENNIAL     PTSUNNY   53  40  61 N15       30.22R
BROOMFIELD     NOT AVBL
FORT COLLINS   LGT RAIN  53  46  77 S8        30.21R
LONGMONT       NOT AVBL
$$

COZ041-046-047-076>085-087-088-280200-
...PIKES PEAK/PALMER DIVIDE AND SOUTHERN FOOTHILLS...

CITY           SKY/WX    TMP DP  RH WIND       PRES   REMARKS
COLO. SPRINGS  PTSUNNY   53  42  66 N9        30.22R
A. F. ACADEMY  CLOUDY    52  39  60 N13       30.22R
SCHRIEVER AFB  PTSUNNY   50  41  69 N9        30.22R
CHEYENNE MTN   PTSUNNY   46  39  75 NW14      30.17R
ELLICOTT       FAIR     N/A N/A N/A NE15      30.20R
FALCON         PTSUNNY   51  37  58 N8G21     30.24R
FORT CARSON    FAIR      53  43  69 N13       30.19S
LIMON          FAIR      52  43  71 NW12      30.18S
MONUMENT HILL  NOT AVBL
CANON CITY     NOT AVBL
WALSENBURG     CLOUDY    48  46  93 N15       30.21R
TRINIDAD       LGT RAIN  50  44  80 NE16      30.21R
$$

COZ042>045-048>051-090-091-280200-
...NORTHEAST COLORADO...

CITY           SKY/WX    TMP DP  RH WIND       PRES   REMARKS
GREELEY ARPT   FAIR      52  47  83 SW9       30.18S
AKRON          FAIR      59  41  51 N15       30.15R
BURLINGTON     PTSUNNY   54  50  86 W8        30.12R
WRAY           FAIR      63  43  48 N12       30.09R
YUMA           NOT AVBL
STERLING       NOT AVBL
HOLYOKE        NOT AVBL
FORT MORGAN    FAIR      59  41  50 N7        30.16R
$$

COZ086-089-092>099-280200-
...SOUTHEAST COLORADO...

CITY           SKY/WX    TMP DP  RH WIND       PRES   REMARKS
PUEBLO         CLOUDY    54  45  71 N10       30.17R
LA JUNTA       CLOUDY    51  47  86 NE15G24   30.14F
LAMAR          LGT RAIN  52  47  83 N13       30.13R
SPRINGFIELD      N/A     48  47  96 N31G40    30.15R
$$




USA.gov is the U.S. government's official web portal to all federal, state and local government web resources and services.